Presure
201 200 204 201 196 193 191 198 198 198 191 190 190 188 190 194 197 197 199 200 206 221 244 199 193 193 197 193 190 191 195 188 185 194 194 217 212 200
203 206 207 201 203 206 205 206 206 202 201 193 196 199 198 195 190 185 185 186 190 195 201 208 225 220 201 180 183 188 188 194 185 192 188 196 195 204
216 221 219 216 219 221 208 198 200 204 201 202 210 199 191 193 196 196 195 195 196 197 189 186 193 199 238 227 217 217 217 210 201 192 199 193 196 197
205 212 215 217 216 217 219 229 229 235 240 213 221 207 205 213 212 194 196 195 196 196 195 196 201 200 187 189 191 226 217 216 213 213 212 195 205 194
211 219 212 215 215 218 221 212 208 215 219 225 241 233 215 215 211 214 215 208 207 204 205 204 197 195 198 200 190 184 185 212 214 152 192 215 200 205
241 254 253 249 247 227 233 251 219 210 203 206 211 215 222 233 226 218 214 214 214 207 205 212 210 211 207 203 202 206 196 218 200 201 214 211 211 204
246 255 261 265 261 255 235 236 249 251 240 230 224 223 214 208 216 230 229 224 214 219 213 205 202 207 209 211 212 201 202 201 200 212 216 213 209 213
243 252 245 241 237 238 239 287 248 229 233 253 253 237 227 235 227 224 225 226 227 220 218 222 213 205 206 201 201 209 217 207 204 194 206 210 212 207
261 267 266 264 262 231 237 264 227 246 258 267 279 235 238 240 237 247 241 229 231 235 230 229 224 214 215 219 226 208 204 203 212 210 204 200 204 207
267 272 272 273 272 276 279 275 280 278 276 280 253 258 255 259 256 234 232 259 257 242 228 224 226 233 225 220 209 219 223 220 212 207 210 211 204 204
265 262 263 264 268 268 272 270 271 272 273 272 267 228 229 229 229 257 245 281 236 251 251 242 241 237 221 234 221 216 225 228 231 229 208 208 217 217
243 237 239 237 252 247 251 260 262 260 256 261 261 266 267 275 271 253 233 290 280 241 259 287 246 248 240 257 243 231 235 216 222 224 231 234 216 210
264 260 261 267 272 263 247 241 250 241 242 243 256 260 265 272 273 271 267 285 281 281 281 295 298 314 247 278 280 284 268 261 253 231 208 211 229 235
335 339 322 276 330 306 329 331 279 274 322 282 287 283 298 246 252 259 258 248 256 268 277 273 272 282 281 285 295 279 301 244 297 267 275 272 233 217
285 287 310 317 314 308 307 307 305 393 395 393 388 392 383 290 315 298 364 231 231 230 236 248 280 273 264 276 292 293 305 256 296 253 247 308 308 300
375 373 381 373 380 382 381 378 380 378 378 384 379 377 383 380 381 385 382 381 385 400 409 413 411 411 401 372 417 308 289 306 318 264 261 270 264 266
359 361 357 354 365 352 358 358 361 361 364 362 362 359 358 358 356 354 354 356 358 361 365 370 369 369 373 380 390 282 264 285 287 290 295 307 293 260
344 345 339 336 336 342 355 369 375 375 370 376 376 366 374 370 365 364 361 339 335 335 337 343 351 348 349 354 362 371 413 423 437 387 272 284 301 307
333 337 341 343 354 357 345 339 332 325 325 326 326 326 326 326 372 371 367 372 377 395 406 395 356 322 333 332 338 346 407 415 416 418 416 420 267 270
314 313 312 308 309 311 316 317 316 315 316 314 311 310 320 322 328 328 330 365 365 370 376 388 384 394 352 323 382 386 391 391 397 402 403 408 405 411
312 307 308 316 320 321 330 359 349 351 348 350 354 356 355 356 358 361 359 359 354 353 356 358 368 361 368 380 374 372 381 379 381 385 387 387 387 388
309 324 328 331 337 348 348 344 347 351 355 354 352 354 357 366 367 370 357 353 354 366 352 348 355 349 347 378 369 362 366 372 370 367 374 374 367 371
329 328 329 333 342 343 344 343 347 347 347 350 350 359 357 354 369 375 376 387 355 352 359 346 345 352 350 350 371 359 358 364 363 357 358 367 365 360
Wind_Speed
79 80 79 78 79 79 79 76 75 74 76 76 76 76 75 72 70 69 68 66 64 61 58 69 69 68 66 66 65 64 62 61 59 55 53 47 48 48
83 83 83 83 83 81 80 78 77 78 78 79 78 76 76 77 78 77 75 73 71 69 67 66 62 64 68 69 69 67 66 64 62 59 57 54 52 49
89 88 88 87 86 86 86 84 82 81 81 80 78 82 82 80 79 79 78 77 76 74 73 71 71 69 59 63 65 65 63 63 64 63 59 57 55 52
91 91 91 91 90 88 87 88 85 83 80 82 80 83 83 80 79 82 82 80 79 78 76 75 73 73 73 71 69 62 63 62 62 61 59 61 54 56
97 94 96 97 95 93 92 89 88 88 87 84 79 81 83 83 83 81 80 81 79 79 77 76 78 77 76 74 73 72 71 64 62 53 58 57 61 55
94 93 92 91 93 97 95 93 94 90 87 86 85 84 83 83 84 85 84 82 80 81 80 76 77 76 77 78 75 73 74 65 69 64 60 60 59 59
94 95 96 93 91 91 98 99 95 96 99 97 94 93 90 85 87 87 87 87 84 83 82 82 82 80 79 79 77 78 76 75 74 67 63 62 62 59
98 100 94 91 91 95 97 90 96 100 101 100 101 99 96 97 95 92 92 91 91 87 87 84 85 84 84 84 81 79 77 78 76 73 70 67 65 64
108 107 105 102 100 101 101 95 103 98 95 95 93 103 101 100 97 97 99 98 96 94 92 92 89 89 86 86 84 85 84 80 78 77 76 74 72 69
112 112 111 109 107 104 102 99 97 98 97 97 101 101 102 102 103 98 97 101 101 101 96 95 92 95 91 89 91 89 89 87 85 80 79 78 76 74
112 111 111 109 108 105 103 101 99 98 97 97 100 109 107 105 102 103 101 99 101 103 102 101 102 101 93 94 92 92 91 89 89 88 83 81 81 79
108 104 103 99 102 95 96 99 100 100 97 98 97 99 99 99 97 101 102 98 98 103 102 100 104 102 102 105 99 94 97 92 93 92 91 90 86 80
117 116 114 113 111 108 101 99 101 98 99 100 102 102 102 102 100 97 95 98 97 96 95 93 97 97 100 102 102 103 104 101 100 96 87 85 90 92
103 103 105 114 102 107 104 105 111 111 104 111 112 109 109 100 99 97 98 99 98 95 95 94 95 93 93 91 96 105 100 92 97 101 104 102 94 87
102 102 100 100 98 99 98 99 99 78 75 75 78 76 80 107 103 107 88 102 102 99 97 100 97 100 100 96 97 97 93 96 97 94 93 96 95 98
73 74 71 75 72 71 72 74 72 73 73 70 72 73 71 72 73 72 72 73 72 67 63 60 61 62 68 70 62 97 93 92 89 94 97 96 93 92
68 68 69 72 69 72 71 71 70 70 68 69 68 69 68 68 69 69 69 68 67 66 64 60 59 62 63 63 63 88 92 93 93 92 91 92 95 93
67 66 68 69 70 69 66 62 60 59 59 57 57 61 59 61 62 62 63 68 68 67 66 62 58 58 59 60 61 62 53 51 48 59 90 92 89 90
65 66 65 64 63 61 63 64 65 66 66 65 64 64 63 63 53 53 54 52 53 50 49 51 57 62 58 60 61 60 48 47 47 47 48 47 89 87
66 68 67 68 67 67 66 66 66 66 65 65 65 65 62 62 62 62 62 53 53 52 51 48 48 44 53 59 48 49 47 47 47 48 47 46 49 52
67 68 67 66 65 65 64 55 58 58 59 58 57 56 55 54 54 54 54 54 55 55 54 53 48 48 47 45 47 48 47 46 47 48 48 49 50 53
68 67 66 63 61 59 59 60 59 58 57 58 58 57 56 54 53 53 55 56 56 54 55 54 51 50 50 46 47 48 49 46 45 48 49 50 53 54
69 67 66 65 62 61 59 60 59 60 60 59 58 57 56 54 53 52 48 46 56 57 55 55 53 50 50 48 47 49 50 49 47 49 52 52 52 54
Wind_Direction
263 263 263 262 260 259 258 258 258 258 258 259 260 261 261 260 260 260 259 259 260 259 258 260 261 261 260 261 262 264 263 264 265 265 264 264 267 270
264 264 264 263 262 261 260 260 259 258 259 259 259 258 259 260 261 262 262 261 261 260 260 260 258 259 261 264 264 263 264 263 265 263 264 263 264 266
268 267 266 266 266 266 264 262 261 260 259 258 258 258 260 259 259 260 260 261 261 261 261 261 261 261 257 258 259 260 260 261 261 262 261 262 261 261
270 270 269 268 267 267 267 267 267 266 265 259 259 258 258 258 257 259 259 259 259 260 261 261 261 260 262 262 262 258 259 258 258 258 258 259 257 259
269 267 268 268 269 268 267 266 265 266 265 263 261 259 258 258 258 257 256 256 256 257 257 257 259 260 261 259 260 262 262 257 255 253 257 254 257 254
265 268 266 263 263 266 266 263 265 264 265 265 263 261 260 258 257 257 257 257 255 255 256 255 255 255 256 258 259 259 260 255 259 257 253 254 253 255
269 271 270 268 266 264 261 262 262 261 262 263 263 262 262 262 261 258 257 256 257 256 254 255 256 255 255 255 255 256 256 257 260 255 251 250 252 252
270 271 267 263 260 261 261 270 261 263 262 260 260 260 260 258 259 259 258 258 257 256 256 254 253 254 255 257 256 255 253 254 256 258 254 253 251 251
271 271 271 271 270 262 263 265 261 261 260 261 261 261 260 259 257 257 256 257 256 254 254 255 253 253 252 253 252 254 255 255 253 252 254 256 255 253
269 269 270 271 271 271 271 270 269 267 266 265 262 260 259 258 258 259 257 255 254 254 255 255 254 253 251 250 253 252 251 251 252 252 252 252 253 254
268 269 269 269 269 269 269 268 268 267 267 266 264 260 260 260 260 257 258 255 256 254 252 252 253 254 251 250 249 251 250 250 249 249 250 252 251 250
267 266 265 264 267 267 267 268 268 266 265 264 263 264 263 264 261 259 259 259 257 256 255 254 253 252 254 252 251 249 249 249 249 249 248 247 249 250
265 265 265 266 267 267 264 264 264 262 261 260 263 264 264 264 264 261 259 261 259 258 255 258 257 256 251 251 254 250 250 249 248 247 248 248 247 247
264 264 265 265 267 266 267 267 265 265 265 265 265 265 264 255 257 258 256 255 256 257 258 254 253 253 251 252 254 252 250 249 247 247 248 247 246 246
263 264 266 266 267 267 267 266 266 267 269 268 268 268 268 264 265 264 268 258 258 259 259 256 256 253 251 251 254 250 250 248 245 247 245 244 242 244
259 259 259 261 263 264 265 266 267 268 268 270 269 269 269 269 270 271 270 270 270 271 270 268 266 265 264 258 259 252 247 247 245 245 246 245 243 243
258 258 259 260 262 264 265 266 267 268 269 269 269 269 269 268 267 267 267 267 267 266 265 263 261 261 260 259 257 252 251 248 245 243 241 242 242 242
258 258 259 260 261 262 265 268 269 270 270 270 269 269 270 270 269 269 268 266 265 264 263 261 259 257 257 256 254 252 251 249 247 245 243 242 240 238
257 258 258 260 263 264 264 264 265 265 266 267 268 268 268 267 269 268 268 267 267 266 266 262 259 255 253 252 252 250 250 245 243 242 240 239 240 238
256 258 258 260 261 262 263 264 264 265 265 265 265 265 266 266 266 266 266 267 265 263 262 260 257 256 251 250 250 250 245 244 241 240 237 235 233 232
256 258 259 261 262 263 264 266 265 265 266 267 269 270 270 269 269 268 267 265 263 261 259 257 255 250 249 248 246 247 245 239 238 237 233 231 229 229
256 258 260 262 263 264 264 264 264 265 266 266 267 268 269 269 267 266 265 264 262 261 257 256 253 247 245 245 244 243 244 239 232 233 232 229 228 228
255 257 258 261 262 262 262 262 263 264 266 268 270 271 273 275 278 278 275 278 260 259 257 253 251 249 245 243 240 240 241 238 231 228 232 231 227 227